Location: Ku?niki
(51.4449°N, 17.8974°E)
Time: 10:48:18
(UTC+00:00)

DX 1 - Pass Details

Date: 29 June 2022
Orbit: 617 x 629 km, 98.4° (Epoch: 08 August)

Event Time Altitude Azimuth Distance (km) Brightness Sun altitude
Rises 20:20:59 0° 13° (NNE) 2,935 ? -8.3°
Reaches altitude 10° 20:23:12 10° 13° (NNE) 2,022 ? -8.5°
Maximum altitude 20:27:36 78° 287° (WNW) 650 ? -8.9°
Drops below altitude 10° 20:31:57 10° 202° (SSW) 2,001 ? -9.3°
Sets 20:34:07 0° 201° (SSW) 2,902 ? -9.5°
